MIDAS 3 DEB, 6215

Orbit data source: Space-Track

MIDAS 3 DEB, 6215 is space debris in LEO originally from a launch on Wed, 12 Jul 1961 UTC launched from the Air Force Western Test Range (AFWTR). Debris objects in space refer to the collection of defunct objects orbiting the Earth. Examples of debris include non-operational satellites, rocket bodies, and fragments generated from explosions, collisions, or faulty payload assembly.

Loading next visibility...
Identifier
6215, 1961-018E
Orbit
LEO
Country
Flag of USUS
Related business
Manufacturer
Unknown
Mission
Spacecraft
Bus & Motor
Unknown
Mass
Unknown
Launch date (UTC)
1961-07-12 (64 years ago)
Launch vehicle
Unknown
Launch site
Air Force Western Test Range (AFWTR)
Object type
Payload
Rocket body
Debris
Shape & HBR
Unknown shape, 1.1 m
Radar Cross Section
Medium (>0.1 m² and <1 m²)

Expand to show TLE details & history
Last TLE update: 1 day ago

TLE from 1 day ago
0 MIDAS 3 DEB
1 06215U 61018E   25290.73323684 -.00000004  00000-0 -20834-2 0  9999
2 06215  91.1226 193.1153 0061987 112.4122 248.3331  8.90941463358323
Epoch: 2025-10-17T17:35Z
TLE epoch observation values (Epoch: 2025-10-17T17:35:51.662Z)
Latitude
-0.00007°
Longitude
-97.32433°
Altitude
3,475.766 km
Speed
6.353 km/s
True Right ascension
12h 52m 27s
True Declination
0° 00' 00"
Sunlit
Object was in daylight at epoch
Visualization orbit readout
Latitude
Unknown
Longitude
Unknown
Altitude
Unknown
Speed
Unknown
Apparent Right ascension
Unknown
Apparent Declination
Unknown
Sunlit
N/A
Visualization observer readout
Local Sidereal Time
13:15:42
Azimuth
Unknown
Elevation
Unknown
Doppler factor
Unknown
Orbital elements
Apogee altitude
3,509.387 km
Perigee altitude
3,387.562 km
Semi-major axis
9,826.611 km
Eccentricity
0.0062
Inclination
91.1226°
RAAN
193.1153°
Arg. of periapsis
112.4122°
True anomaly
247.67487°
Mean anomaly
248.3331°
Eccentric anomaly
248.00379°
Mean motion
2.22811 °/min
Orbital period
161.57 mins
BSTAR
-0.0020834
Loading maneuver chart data...
Computing Atmospheric mass density...
Loading historical data...
Loading historical data...
Loading historical data...
Loading historical data...
Loading historical data...
Loading historical data...
Loading historical data...
Other satellites on launch #18 in the year 1961 (1961-07-12 UTC)

Documentation

Showing up to 5 results
|